FW0878 Weather Reports


Display with metric or nautical units.
time (UTC)temp
F
wind
direction
speed
MPH
gust
MPH
rain 1hr
in
rain 24hr
in
rain mn
in
humidity
%
barometer
mb
20260904080807 59 1 2.0 7.0 0.00 0.00 0.00 64 1013.8
20260904080307 59 65 2.0 6.0 0.00 0.00 0.00 64 1013.7
20260904075307 60 19 3.0 6.0 0.00 0.00 0.00 63 1014.0
20260904074307 60 21 3.0 6.0 0.00 0.00 0.00 62 1014.2
20260904073806 60 276 1.0 7.0 0.00 0.00 0.00 62 1014.1
20260904073306 60 358 3.0 7.0 0.00 0.00 0.00 61 1014.2
20260904072807 60 317 3.0 7.0 0.00 0.00 0.00 61 1014.4
20260904072308 60 21 3.0 6.0 0.00 0.00 0.00 60 1014.3
20260904071806 61 359 3.0 7.0 0.00 0.00 0.00 60 1014.4
20260904071306 61 357 3.0 9.0 0.00 0.00 0.00 60 1014.3
20260904070806 61 1 5.0 10.0 0.00 0.00 0.00 59 1014.3
20260904070307 61 291 5.0 10.0 0.00 0.00 0.00 59 1014.4
20260904065806 61 116 2.0 9.0 0.00 0.00 0.00 60 1014.6
20260904065307 61 318 3.0 8.0 0.00 0.00 0.00 59 1014.6
20260904064806 61 339 3.0 9.0 0.00 0.00 0.00 58 1014.6
20260904064308 61 315 3.0 12.0 0.00 0.00 0.00 57 1014.6
20260904063806 61 269 5.0 13.0 0.00 0.00 0.00 57 1014.8
20260904063307 62 336 4.0 10.0 0.00 0.00 0.00 57 1014.9
20260904062807 62 314 5.0 12.0 0.00 0.00 0.00 56 1014.8
20260904061807 62 290 2.0 7.0 0.00 0.00 0.00 56 1014.8
20260904061307 63 290 4.0 8.0 0.00 0.00 0.00 56 1015.0
20260904060807 63 313 4.0 9.0 0.00 0.00 0.00 55 1015.0
20260904060306 63 179 3.0 8.0 0.00 0.00 0.00 55 1015.0
20260904055808 64 337 3.0 7.0 0.00 0.00 0.00 55 1015.1
20260904055307 64 290 2.0 7.0 0.00 0.00 0.00 54 1015.0
20260904054806 64 274 3.0 7.0 0.00 0.00 0.00 54 1015.1
20260904054307 64 293 2.0 6.0 0.00 0.00 0.00 54 1015.5
20260904053806 64 269 2.0 8.0 0.00 0.00 0.00 53 1015.2
20260904052807 64 293 1.0 5.0 0.00 0.00 0.00 53 1015.3
20260904052308 63 314 1.0 3.0 0.00 0.00 0.00 53 1015.4
20260904051807 64 0 1.0 10.0 0.00 0.00 0.00 53 1015.5
20260904051307 64 359 5.0 10.0 0.00 0.00 0.00 51 1015.6
20260904050809 64 341 4.0 9.0 0.00 0.00 0.00 51 1015.8
20260904050307 65 67 4.0 12.0 0.00 0.00 0.00 50 1015.6
20260904045808 64 65 3.0 6.0 0.00 0.00 0.00 51 1015.6
20260904045307 65 294 3.0 6.0 0.00 0.00 0.00 50 1015.4
20260904044806 64 335 2.0 8.0 0.00 0.00 0.00 50 1015.4
20260904044308 64 43 1.0 7.0 0.00 0.00 0.00 51 1015.7
20260904043307 65 21 2.0 5.0 0.00 0.00 0.00 49 1015.8
20260904042807 65 42 2.0 6.0 0.00 0.00 0.00 48 1015.5
20260904042306 66 247 2.0 6.0 0.00 0.00 0.00 48 1015.8
20260904041807 67 252 2.0 5.0 0.00 0.00 0.00 46 1015.8
20260904040306 66 90 3.0 7.0 0.00 0.00 0.00 46 1015.7
20260904034806 65 89 5.0 14.0 0.00 0.00 0.00 47 1015.9
20260904033808 65 44 2.0 6.0 0.00 0.00 0.00 47 1016.0
20260904033307 65 92 2.0 7.0 0.00 0.00 0.00 48 1016.1
20260904032308 66 42 2.0 5.0 0.00 0.00 0.00 46 1016.5
20260904031806 64 291 1.0 6.0 0.00 0.00 0.00 47 1016.4
20260904030807 66 311 2.0 10.0 0.00 0.00 0.00 45 1016.6
20260904030308 66 294 3.0 7.0 0.00 0.00 0.00 45 1016.6
20260904025307 64 19 2.0 6.0 0.00 0.00 0.00 46 1016.7
20260904024807 64 292 2.0 6.0 0.00 0.00 0.00 47 1017.0
20260904024307 63 86 2.0 7.0 0.00 0.00 0.00 48 1017.0
20260904023808 64 357 3.0 7.0 0.00 0.00 0.00 46 1017.1
20260904023307 64 312 2.0 10.0 0.00 0.00 0.00 46 1017.1
20260904022806 63 359 3.0 7.0 0.00 0.00 0.00 47 1017.1
20260904022306 62 338 3.0 8.0 0.00 0.00 0.00 48 1017.2
20260904021807 62 337 2.0 7.0 0.00 0.00 0.00 48 1017.5
20260904021306 63 250 2.0 7.0 0.00 0.00 0.00 47 1017.5
20260904020307 63 314 3.0 7.0 0.00 0.00 0.00 45 1017.7
20260904015307 63 252 1.0 5.0 0.00 0.00 0.00 45 1018.1
20260904014806 63 246 2.0 6.0 0.00 0.00 0.00 44 1018.1
20260904014307 63 269 1.0 10.0 0.00 0.00 0.00 44 1018.4
20260904013806 63 314 2.0 7.0 0.00 0.01 0.00 44 1018.3
20260904012806 62 290 2.0 9.0 0.00 0.03 0.00 45 1018.3
20260904012306 62 267 3.0 6.0 0.00 0.03 0.00 44 1018.4
20260904011807 62 246 2.0 6.0 0.00 0.03 0.00 44 1018.3
20260904011307 62 340 3.0 6.0 0.00 0.03 0.00 44 1018.3
20260904010308 61 277 2.0 7.0 0.00 0.03 0.00 47 1018.3
20260904005307 61 275 2.0 5.0 0.00 0.03 0.00 47 1018.7
20260904004806 60 47 2.0 7.0 0.00 0.03 0.00 47 1019.0
20260904004307 61 315 2.0 6.0 0.00 0.03 0.00 47 1019.2
20260904003808 60 268 1.0 8.0 0.00 0.03 0.00 48 1019.1
20260904003306 61 289 1.0 5.0 0.00 0.03 0.00 47 1019.3
20260904002806 61 315 2.0 6.0 0.00 0.03 0.00 46 1019.5
20260904002307 61 359 3.0 8.0 0.00 0.03 0.00 47 1019.4
20260904001806 61 250 3.0 7.0 0.00 0.03 0.00 48 1019.6
20260904001308 60 339 2.0 7.0 0.00 0.03 0.00 49 1019.4
20260904000806 60 90 3.0 8.0 0.00 0.03 0.00 49 1019.5
20260904000307 60 335 3.0 8.0 0.00 0.03 0.00 50 1019.6
20260903235808 59 358 4.0 9.0 0.00 0.03 0.00 50 1019.7
20260903235307 60 338 3.0 7.0 0.00 0.03 0.00 50 1019.7
20260903234807 59 21 2.0 6.0 0.00 0.03 0.00 51 1019.6
20260903234307 59 339 3.0 6.0 0.00 0.03 0.00 51 1019.5
20260903233806 59 335 2.0 6.0 0.00 0.03 0.00 51 1019.6
20260903233308 59 316 2.0 7.0 0.00 0.03 0.00 53 1019.8
20260903232807 58 235 2.0 7.0 0.00 0.03 0.00 55 1019.5
20260903231807 57 250 2.0 6.0 0.00 0.03 0.00 57 1020.1
20260903231307 58 22 1.0 5.0 0.00 0.03 0.00 58 1020.3
20260903230307 56 359 2.0 6.0 0.00 0.03 0.00 59 1020.0
20260903225806 56 336 2.0 6.0 0.00 0.03 0.03 59 1020.2
20260903225307 56 155 1.0 5.0 0.00 0.03 0.03 61 1020.0
20260903224806 55 114 2.0 3.0 0.00 0.03 0.03 63 1020.2
20260903223806 54 299 1.0 5.0 0.00 0.03 0.03 65 1020.0
20260903223306 54 326 2.0 5.0 0.00 0.03 0.03 65 1020.3
20260903222806 53 293 1.0 3.0 0.00 0.03 0.03 66 1020.3
20260903222307 52 316 1.0 2.0 0.00 0.03 0.03 67 1020.2
20260903221807 51 291 1.0 3.0 0.00 0.03 0.03 68 1020.2
20260903220806 50 316 1.0 5.0 0.00 0.03 0.03 70 1020.0
20260903220308 49 337 1.0 2.0 0.00 0.03 0.03 72 1019.7
20260903215807 48 342 1.0 2.0 0.00 0.03 0.03 72 1019.7
20260903215306 48 324 2.0 5.0 0.00 0.03 0.03 73 1019.8
20260903214806 47 204 1.0 3.0 0.00 0.03 0.03 74 1019.8
20260903214307 46 299 1.0 3.0 0.00 0.03 0.03 75 1019.4
20260903213307 44 312 1.0 3.0 0.00 0.03 0.03 79 1019.4
20260903212808 44 320 1.0 3.0 0.00 0.03 0.03 80 1019.3
20260903212307 44 250 1.0 2.0 0.00 0.03 0.03 80 1019.3
20260903211806 43 45 1.0 3.0 0.00 0.03 0.03 81 1019.1
20260903211306 43 316 1.0 2.0 0.00 0.03 0.03 81 1019.2
20260903210806 43 270 1.0 2.0 0.00 0.03 0.03 82 1019.2
20260903210306 43 0 1.0 2.0 0.00 0.03 0.03 82 1019.2
20260903205807 43 315 1.0 2.0 0.00 0.03 0.03 82 1019.0
20260903205307 43 66 1.0 1.0 0.00 0.03 0.03 81 1018.9
20260903204307 43 338 1.0 2.0 0.00 0.03 0.03 81 1018.8
20260903203807 43 316 1.0 2.0 0.00 0.03 0.03 81 1019.0
20260903203307 43 338 1.0 2.0 0.00 0.03 0.03 81 1018.9
20260903202306 43 338 1.0 1.0 0.00 0.03 0.03 80 1019.0
20260903201806 43 338 1.0 1.0 0.00 0.03 0.03 80 1019.0
20260903201307 43 295 1.0 1.0 0.00 0.03 0.03 80 1018.9
20260903200306 43 337 1.0 1.0 0.00 0.03 0.03 81 1018.9
20260903195806 43 359 1.0 2.0 0.00 0.03 0.03 81 1019.0
20260903195307 43 359 1.0 2.0 0.00 0.03 0.03 81 1018.8
20260903194808 43 359 0.0 1.0 0.00 0.03 0.03 81 1018.8
20260903194307 43 316 0.0 1.0 0.00 0.03 0.03 81 1018.7
20260903193807 43 315 0.0 1.0 0.00 0.03 0.03 81 1018.9
20260903193307 44 315 0.0 0.0 0.00 0.03 0.03 81 1018.7
20260903192806 44 316 0.0 1.0 0.00 0.03 0.03 82 1018.9
20260903192308 44 292 1.0 2.0 0.00 0.03 0.03 82 1018.7
20260903191308 44 359 0.0 2.0 0.00 0.03 0.03 83 1018.7
20260903185807 43 359 0.0 2.0 0.00 0.03 0.03 83 1018.8
20260903185306 44 292 0.0 1.0 0.00 0.03 0.03 83 1018.8
20260903183806 43 291 1.0 2.0 0.00 0.03 0.03 84 1018.5
20260903183307 42 270 0.0 2.0 0.00 0.03 0.03 84 1018.6
20260903182806 42 357 0.0 2.0 0.00 0.03 0.03 84 1018.7
20260903182307 42 339 0.0 1.0 0.00 0.03 0.03 84 1018.6
20260903181306 43 338 0.0 0.0 0.00 0.03 0.03 84 1018.6
20260903180307 43 338 1.0 1.0 0.00 0.03 0.03 85 1018.6
20260903175808 42 339 0.0 1.0 0.00 0.03 0.03 86 1018.7
20260903175307 42 338 0.0 1.0 0.00 0.03 0.03 86 1018.7
20260903174808 42 294 0.0 1.0 0.00 0.03 0.03 86 1018.6
20260903174307 41 291 0.0 1.0 0.00 0.03 0.03 86 1018.7
20260903173807 41 338 0.0 1.0 0.00 0.03 0.03 86 1018.7
20260903172307 42 315 0.0 1.0 0.00 0.03 0.03 86 1018.6
20260903171307 42 316 0.0 1.0 0.00 0.03 0.03 86 1019.0
20260903170307 42 292 0.0 1.0 0.00 0.03 0.03 86 1019.0
20260903165807 42 314 0.0 1.0 0.00 0.03 0.03 85 1019.0
20260903165306 42 295 0.0 1.0 0.00 0.03 0.03 85 1019.1
20260903164807 42 338 0.0 0.0 0.00 0.03 0.03 85 1019.0
20260903163806 42 338 0.0 0.0 0.00 0.03 0.03 84 1019.1
20260903163307 43 338 0.0 1.0 0.00 0.03 0.03 84 1019.2
20260903162806 43 339 0.0 1.0 0.00 0.03 0.03 84 1019.3
20260903162308 43 0 1.0 1.0 0.00 0.03 0.03 84 1019.3
20260903161306 43 338 1.0 2.0 0.00 0.03 0.03 84 1019.4
20260903160806 43 338 1.0 1.0 0.00 0.03 0.03 84 1019.5
20260903160306 43 21 1.0 1.0 0.00 0.03 0.03 84 1019.6
20260903155807 43 338 0.0 1.0 0.00 0.03 0.03 84 1019.5
20260903155306 43 338 0.0 0.0 0.00 0.03 0.03 83 1019.6
20260903154807 44 338 0.0 1.0 0.00 0.03 0.03 83 1019.6
20260903154307 44 0 0.0 0.0 0.00 0.03 0.03 83 1019.3
20260903153806 44 0 0.0 1.0 0.00 0.03 0.03 83 1019.5
20260903153306 44 0 0.0 1.0 0.00 0.03 0.03 83 1019.6
20260903152807 44 0 0.0 0.0 0.00 0.03 0.03 82 1019.3
20260903152307 44 0 0.0 1.0 0.00 0.03 0.03 82 1019.4
20260903151806 45 0 0.0 1.0 0.00 0.03 0.03 82 1019.4
20260903150807 45 2 0.0 1.0 0.00 0.03 0.03 82 1019.5
20260903150306 45 45 0.0 1.0 0.00 0.03 0.03 82 1019.5
20260903145807 45 68 0.0 0.0 0.00 0.03 0.03 82 1019.6
20260903145308 45 45 0.0 1.0 0.00 0.03 0.03 82 1019.6
20260903144806 46 0 0.0 1.0 0.00 0.03 0.03 82 1019.7
20260903144308 46 1 0.0 1.0 0.00 0.03 0.03 82 1019.7
20260903143806 46 20 0.0 2.0 0.00 0.03 0.03 82 1019.5
20260903142808 46 22 1.0 2.0 0.00 0.03 0.03 82 1019.5
20260903142306 46 338 0.0 1.0 0.00 0.03 0.03 82 1019.5
20260903141807 46 338 0.0 1.0 0.00 0.03 0.03 82 1019.7
20260903141307 47 340 1.0 2.0 0.00 0.03 0.03 81 1019.6
20260903140807 47 0 1.0 2.0 0.00 0.03 0.03 81 1019.5
20260903140307 47 0 1.0 1.0 0.00 0.03 0.03 81 1019.6
20260903135806 47 359 1.0 1.0 0.00 0.03 0.03 81 1019.6
20260903135307 47 0 1.0 1.0 0.00 0.03 0.03 81 1019.5
20260903134807 47 338 0.0 1.0 0.00 0.03 0.03 81 1019.8
20260903134306 48 338 0.0 1.0 0.00 0.03 0.03 81 1019.6
20260903133807 48 0 0.0 0.0 0.00 0.03 0.03 81 1019.8
20260903133307 48 338 0.0 1.0 0.00 0.03 0.03 81 1019.7
20260903132807 49 0 0.0 1.0 0.00 0.03 0.03 81 1019.6
20260903132308 49 338 0.0 1.0 0.00 0.03 0.03 81 1019.7
20260903131806 49 317 0.0 1.0 0.00 0.03 0.03 81 1019.7
20260903130807 49 338 1.0 2.0 0.00 0.03 0.03 81 1019.9
20260903130307 49 293 1.0 2.0 0.00 0.03 0.03 82 1019.8
20260903125807 49 292 1.0 1.0 0.00 0.03 0.03 82 1019.7
20260903125307 48 315 1.0 1.0 0.00 0.03 0.03 82 1019.9
20260903124806 48 316 1.0 1.0 0.00 0.03 0.03 83 1019.7
20260903123306 47 315 0.0 1.0 0.00 0.03 0.03 84 1019.9
20260903122807 47 271 0.0 1.0 0.00 0.03 0.03 83 1019.9
20260903122307 47 271 0.0 1.0 0.00 0.03 0.03 83 1019.7
20260903121807 47 291 0.0 0.0 0.00 0.03 0.03 82 1019.7
20260903121306 47 270 0.0 0.0 0.00 0.03 0.03 81 1019.7
20260903120807 48 271 0.0 0.0 0.00 0.03 0.03 81 1019.7
20260903120307 48 271 0.0 1.0 0.00 0.03 0.03 80 1019.7
20260903115806 48 271 0.0 1.0 0.00 0.03 0.03 80 1019.6
20260903115306 49 336 0.0 0.0 0.00 0.03 0.03 79 1019.6
20260903114806 49 315 0.0 0.0 0.00 0.03 0.03 78 1019.4
20260903114306 49 315 0.0 1.0 0.00 0.03 0.03 78 1019.5
20260903113807 50 271 0.0 1.0 0.00 0.03 0.03 76 1019.3
20260903113307 50 247 0.0 0.0 0.00 0.03 0.03 76 1019.3
20260903112806 51 294 0.0 1.0 0.00 0.03 0.03 75 1019.3
20260903112306 51 339 0.0 1.0 0.00 0.03 0.03 75 1019.4
20260903111806 51 339 1.0 1.0 0.00 0.03 0.03 75 1019.1
20260903110806 51 269 1.0 2.0 0.00 0.03 0.03 75 1019.1
20260903110306 51 270 1.0 2.0 0.00 0.03 0.03 75 1019.0
20260903105806 52 269 1.0 1.0 0.00 0.03 0.03 75 1018.9
20260903105307 52 269 1.0 2.0 0.00 0.03 0.03 74 1019.0
20260903104306 52 225 1.0 2.0 0.00 0.03 0.03 73 1018.9
20260903103808 53 202 0.0 0.0 0.00 0.03 0.03 72 1018.8
20260903102806 53 248 0.0 0.0 0.00 0.03 0.03 71 1018.5
20260903101306 54 226 2.0 3.0 0.00 0.03 0.03 70 1018.6
20260903100807 54 204 2.0 7.0 0.00 0.03 0.03 69 1018.5
20260903100307 55 248 2.0 7.0 0.00 0.03 0.03 69 1018.5
20260903095807 55 242 2.0 5.0 0.00 0.03 0.03 69 1018.1
20260903095307 55 181 2.0 5.0 0.00 0.03 0.03 69 1018.4
20260903094807 55 270 2.0 6.0 0.00 0.03 0.03 68 1018.3
20260903094306 55 291 2.0 5.0 0.00 0.03 0.03 68 1018.1
20260903093807 55 248 1.0 3.0 0.00 0.03 0.03 68 1018.1
20260903092806 56 290 1.0 2.0 0.00 0.03 0.03 67 1017.7
20260903092307 56 248 1.0 2.0 0.00 0.03 0.03 67 1017.7
20260903091806 56 226 1.0 2.0 0.00 0.03 0.03 66 1017.8
20260903091306 56 249 1.0 2.0 0.00 0.03 0.03 66 1017.7
20260903090806 56 223 1.0 3.0 0.00 0.03 0.03 65 1017.5
20260903090306 57 270 1.0 3.0 0.00 0.03 0.03 64 1017.5
20260903085807 57 250 2.0 5.0 0.00 0.03 0.03 64 1017.4
20260903085307 57 247 3.0 6.0 0.00 0.03 0.03 63 1017.3
20260903084808 58 249 3.0 6.0 0.00 0.03 0.03 63 1016.9
20260903083807 58 225 2.0 9.0 0.00 0.03 0.03 63 1016.9
20260903083307 58 265 2.0 6.0 0.00 0.03 0.03 63 1016.9
20260903082806 58 248 2.0 5.0 0.00 0.03 0.03 62 1016.9
20260903082306 58 225 2.0 7.0 0.00 0.03 0.03 62 1016.8